Flag for U.S.A. Weather past 2 weeks in Barnstable, Massachusetts, U.S.A.

Now
48 °F

Light rain. Mostly cloudy.


Feels Like: 43 °F
Forecast: 42 / 56 °F
Wind: 10 mph from Northeast

Location: Barnstable Municipal-Boardman Airport

Current Time: Apr 27, 2015 at 7:09:26 PM

Latest Report: Apr 27, 2015 at 5:56 PM


Visibility: 10 mi

Pressure: 29.54 "Hg

Humidity: 77%

Dew point: 41 °F

Location of BarnstableLocation

Historic Weather in Barnstable — Graph

°F

Barnstable temperature yesterday

Maximum temperature yesterday: 54 °F (at 1:56 PM)
Minimum temperature yesterday: 31 °F (at 4:56 AM)
Average temperature yesterday: 46 °F

Past Weeks' High & Low Weather Summary

 TemperatureHumidityPressure
High64 °F (Apr 21, 3:56 PM)100% (Apr 21, 12:56 AM)30.47 "Hg (Apr 21, 12:56 AM)
Low31 °F (Apr 26, 4:56 AM)21% (Apr 15, 3:56 PM)29.50 "Hg (Apr 27, 3:56 PM)
Average48 °F70%29.92 "Hg
* Reported Apr 12 4:56 PM — Apr 27 4:56 PM, Barnstable, Weather by CustomWeather, © 2015

Note: Actual official high and low records may vary slightly from our data, if they occured in-between our weather recording intervals... More about our weather records

Advertising

Barnstable weather history for previous 24 hours

 ConditionsComfort  
Time TempWeatherWind HumidityBarometerVisibility
4:56 PM
Mon, Apr 27
52 °FLight rain. Overcast.8 mph59%29.52 "Hg10 mi
3:56 PM54 °FOvercast.8 mph53%29.50 "Hg10 mi
2:56 PM53 °FMostly cloudy.No wind59%29.52 "Hg10 mi
1:56 PM52 °FMostly cloudy.6 mph57%29.53 "Hg10 mi
12:56 PM52 °FMostly cloudy.3 mph57%29.54 "Hg10 mi
11:56 AM53 °FSunny.12 mph55%29.55 "Hg10 mi
10:56 AM53 °FOvercast.12 mph55%29.56 "Hg10 mi
9:56 AM50 °FOvercast.15 mph61%29.56 "Hg10 mi
8:56 AM50 °FOvercast.12 mph59%29.56 "Hg10 mi
7:56 AM50 °FOvercast.13 mph59%29.56 "Hg10 mi
6:56 AM48 °FPassing clouds.9 mph61%29.57 "Hg10 mi
5:56 AM45 °FClear.5 mph68%29.57 "Hg10 mi
4:56 AM47 °FOvercast.6 mph64%29.57 "Hg10 mi
3:56 AM47 °FOvercast.5 mph66%29.57 "Hg10 mi
2:56 AM48 °FOvercast.9 mph63%29.57 "Hg10 mi
1:56 AM48 °FOvercast.7 mph61%29.58 "Hg10 mi
12:56 AM47 °FOvercast.5 mph69%29.58 "Hg10 mi
11:56 PM
Sun, Apr 26
47 °FOvercast.5 mph71%29.58 "Hg10 mi
10:56 PM46 °FOvercast.7 mph71%29.59 "Hg10 mi
9:56 PM47 °FOvercast.8 mph66%29.61 "Hg10 mi
8:56 PM47 °FOvercast.9 mph64%29.62 "Hg10 mi
7:56 PM48 °FOvercast.10 mph56%29.62 "Hg10 mi
Weather by CustomWeather, © 2015

See weather overviewHow to use our weather pages